Regional Weather Roundup
Issued by NWS Wakefield, VA

Home | Current Version | Previous Version | Text Only | Print | Product List | Glossary Off
Versions: 1 2 3 4 5 6 7 8 9 10 11 12 13 14 15 16 17 18 19 20 21 22 23 24 25 26 27

000
ASUS41 KAKQ 220415
RWRAKQ

REGIONAL WEATHER ROUNDUP
NATIONAL WEATHER SERVICE WAKEFIELD VA
1200 AM EDT SAT APR 22 2017

Note: "fair" indicates few or no clouds below 12,000 feet with no
significant weather and/or obstructions to visibility. * = Denotes
station may not report precipitation (e.g., rain,snow,etc.),
thunder or fog.

VAZ042-051-052>054-056-220500-
NORTHERN VIRGINIA

CITY           SKY/WX    TMP DP  RH WIND       PRES   REMARKS
WASH NATIONAL  CLOUDY    65  62  90 NE13      29.87S
DULLES         MOCLDY    67  63  87 NE8       29.87R
FORT BELVOIR   CLOUDY    68  64  85 N3        29.86R
QUANTICO       TSTM      67  67 100 NE8       29.86R
FREDERICKSBRG* PTCLDY    67  66  97 CALM      29.84R
STAFFORD*      CLOUDY    65  65 100 NE5       29.89R
WARRENTON      CLOUDY    66  61  82 CALM      29.85F
CULPEPER*      CLOUDY    67  65  93 CALM      29.86F
MANASSAS*      NOT AVBL
LEESBURG*      CLOUDY    68  64  88 NE5       29.90R
WINCHESTER     CLOUDY    64  45  48 N3        29.91R
FRONT ROYAL*   CLOUDY    70  46  43 N5        29.89R
LURAY*         CLOUDY    70  46  43 NE3       29.88S
$$

VAZ048-049-060>072-079>083-220500-
CENTRAL AND SOUTH CENTRAL VIRGINIA

CITY           SKY/WX    TMP DP  RH WIND       PRES   REMARKS
RICHMOND       CLOUDY    67  66  97 SE5       29.84S
CHESTERFIELD*  MOCLDY   N/A N/A N/A CALM      29.86S
PETERSBURG*    LGT RAIN  67  63  86 CALM      29.85F
HANOVER        CLOUDY    65  63  93 CALM      29.86S FOG
TAPPAHANNOCK*  CLOUDY    67  67 100 CALM      29.84F
QUINTON*       FAIR      66  66 100 CALM      29.84S
CHARLOTTSVILLE MOCLDY    72  59  63 VRB3      29.86R
GORDONSVILLE*  CLOUDY    66  64  92 NE7       29.84S
ORANGE*        CLOUDY    64  63  94 CALM      29.85S
LOUISA*        CLOUDY    68  64  88 CALM      29.84S
BUMPASS*       MOCLDY    63  63 100 CALM      29.85R
FARMVILLE*     CLOUDY    72  62  71 SW6       29.86R
CREWE*         FAIR      71  63  77 CALM      29.86S
FORT PICKETT*  CLOUDY    69  59  70 SW5       29.86F
CHASE CITY*    CLOUDY    71  61  70 W8        29.90R
CLARKSVILLE*   CLOUDY    70  63  78 SW5       29.91R
SOUTH HILL*    MOCLDY    69  63  83 SW8       29.94R
LAWRENCEVILLE* FAIR      70  62  74 S5        29.88R
EMPORIA*       CLOUDY    72  63  73 S5        29.89R
$$

VAZ088>098-220500-
SOUTHEAST VIRGINIA

CITY           SKY/WX    TMP DP  RH WIND       PRES   REMARKS
NORFOLK        CLEAR     74  62  66 CALM      29.86R
VIRGINIA BEACH MOCLDY    72  61  68 NW6       29.86R
NORFOLK NAVAL  MOCLDY    72  61  68 CALM      29.88R
WEST POINT*    PTCLDY    64  63  94 CALM      29.86R
SALUDA*        FAIR      65  65 100 SE5       29.84F
NEWPORT NEWS   PTCLDY    68  61  78 CALM      29.85F
LANGLEY AFB    CLOUDY    67  67 100 CALM      29.85S
FORT EUSTIS    PTCLDY    70  61  73 CALM      29.83S
WILLIAMSBURG*  PTCLDY    70  64  83 CALM      29.86F
HR EXEC AP*    MOCLDY    73  63  68 SW9       29.84S
FRANKLIN*      PTCLDY    72  65  80 CALM      29.87R
US460-WAKEFLD  CLOUDY    68  65  90 CALM      29.86S
$$

VAZ020-022-025-037-045-220500-
WEST CENTRAL AND SOUTHWEST VIRGINIA

CITY           SKY/WX    TMP DP  RH WIND       PRES   REMARKS
STAUNTON*      CLOUDY    65  58  79 CALM      29.92S
WAYNESBORO*    CLOUDY    67  60  76 CALM      29.91S
HOT SPRINGS VA DRIZZLE   59  55  88 CALM      30.00F
LYNCHBURG      LGT RAIN  68  61  78 SW5       29.91S
DANVILLE       LGT RAIN  64  64 100 E3        29.91F
SOUTH BOSTON*  CLOUDY    68  66  92 W13G18    29.93R
MARTINSVILLE   CLOUDY    62  61  97 CALM      29.93F FOG
ROANOKE        CLOUDY    66  62  87 W6        29.94F
BLACKSBURG     CLOUDY    62  60  93 CALM      29.99F
DUBLIN*        LGT RAIN  62  58  86 CALM      29.98F
MARION*        MOCLDY    60  59  96 SW3       30.01S
HILLSVILLE*    CLOUDY    59  59 100 CALM      29.97F
RICHLANDS*     CLOUDY    60  59  99 CALM      29.98S
WISE*          FOG       61  61 100 CALM      30.00S VSB 1
ABINGDON*      LGT RAIN  62  61  98 CALM      29.97S
$$

MDZ021>025-VAZ099-100-220500-
SOUTHERN MARYLAND AND THE DELMARVA PENINSULA

CITY           SKY/WX    TMP DP  RH WIND       PRES   REMARKS
PATUXENT RIVER PTCLDY    64  64 100 CALM      29.84R
BAY BRIDGE APT CLEAR     59  55  88 E8        29.88R FOG
LEONARDTOWN    MOCLDY    64  63  94 N3        29.86S
DOVER          CLOUDY    55  55 100 E5        29.89S
GEORGETOWN     CLOUDY    55  51  86 MISG      29.91R
EASTON         MOCLDY    59  55  89 E8        29.92R
CAMBRIDGE        N/A     61  57  88 NE6       29.87R
SALISBURY      CLOUDY    57  57 100 E7        29.87S
OCEAN CITY     CLOUDY    54  52  93 NE3       29.89S
WALLOPS ISLAND CLOUDY    61  61 100 S8        29.85F
ACCOMACK*      CLOUDY    62  60  95 CALM      29.87S
$$

NCZ012>017-030>032-220500-
NORTH CENTRAL AND EASTERN NORTH CAROLINA

CITY           SKY/WX    TMP DP  RH WIND       PRES   REMARKS
ROANOKE RAPIDS CLOUDY    70  66  88 S5        29.89S
RALEIGH        LGT RAIN  70  64  81 W6        29.93R
ELIZABETH CITY MOCLDY    75  67  76 MISG      29.88S
AHOSKIE*         N/A     70  65  83 S3        29.89S
EDENTON*       DRIZZLE   76  68  78 SW8       29.91S
CURRITUCK*     MOCLDY    75  65  72 SW7       29.88S
KILL DEVIL HLS MOCLDY    73  64  72 SW9G16    29.89R
MANTEO         MOCLDY    73  65  76 SW15      29.90S
CAPE HATTERAS  CLEAR     70  64  81 SW13G22   29.94S HAZE
TARBORO*       NOT AVBL
GOLDSBORO      PTCLDY    74  66  77 SW6       29.91R
WASHINGTON     PTCLDY    73  63  71 SW7       29.92S
GREENVILLE     CLOUDY    77  64  65 SW8       29.93F
NEW BERN       CLEAR     69  64  84 S8        29.95R
WILMINGTON     CLEAR     70  61  73 SW9       29.96S
$$

VAZ048-220500-
ELSEWHERE

CITY           SKY/WX    TMP DP  RH WIND       PRES   REMARKS
HARRISBURG PA  CLOUDY    60  57  89 CALM      29.89S
BALTIMORE      PTCLDY    61  59  93 E12       29.87S
ANNAPOLIS      PTCLDY    63  60  90 NE9       29.87S
ANDREWS AFB    LGT RAIN  63  61  94 NE7       29.86S
PHILADELPHIA   MOCLDY    56  54  93 E3        29.91R
HENDERSON NC   MOCLDY    69  60  73 W13G18    29.92R
GREENSBORO     CLOUDY    67  66  97 NW3       29.92F
ROCKY MOUNT    CLOUDY    72  67  84 S7        29.90S
$$

VAZ100-220500-
MARINE

STATION/POSITION TIME  TEMP    WIND        PRES    WAVE   SWELL
                       AIR SEA DIR/SP/G            HT/PER HT/PER
                 (UTC) (F)     (DEG/KT/KT) (MB)    (FT/S) (FT/S)
CAPE MAY NJ      0348   52 55   50/  7/ 11 1012.5R
LEWES DE         0348   51 53   60/ 11/ 13 1012.9R
15NM E FENWICK I 0350   52 52  350/  6/  8 1012.9R   4/10   3/10
OCEAN-CITY-INLET 0348   54 56   30/  3/  4 1012.3R
WACHAPREAGUE VA  0348   62 73   40/  5/  8 1011.0F
THOMAS POINT MD  0400   62 60   60/  8/  9   N/A
GOOSES REEF MD   0400   65 59   70/ 10/ 12 1012.0
COVE POINT MD    0348   66     180/  1/  7 1011.6R
SOLOMONS ISLAND  0348   66 63   90/  6/  7   N/A
BISHOPS HEAD MD  0348   68 69  110/  6/ 12 1010.8F
PINEY POINT MD   0348          170/  8/  9   N/A
POTOMAC MD       0400   64 63  170/ 12/ 14 1009.5    1/ 2
CAMBRIDGE MD     0348   62 65   70/ 11/ 12 1010.8R
LEWISETTA VA     0348   67 66  170/  5/  6 1010.0F
RAPPAHANNOCK LGT 0348           60/ 14/ 15 1011.1F
STINGRAY PT      0400   64 63  110/ 10/ 12 1009.8
YORK RVR RNG VA  0348   69      70/  5/  5 1010.3F
YORKTOWN VA      0348   70 66  180/  1/  2 1010.5F
JAMESTOWN VA     0400   70 71  130/  2/  4   N/A     0
DOMINION TERM VA 0348   74     130/  3/  5 1011.0F
KIPTOPEKE VA     0348      61   10/  4/ 10   N/A
CHES BAY BRIDGE  0348   69 62  160/  6/ 10 1011.1S
CAPE HENRY VA    0348   70     120/  3/  4   N/A
WILLOUBY STN VA  0348   73     130/  2/  2 1012.1S
S CRANEY ISL VA  0348   74     180/  8/  9 1011.1R
CAPE HENRY BUOY  0342      61                N/A     2/12   2/12
1ST LANDING BUOY 0400   67 63              1011.5    1
CAPE CHARLES BUO 0351      62                N/A     2/11   2/11
64NM E OF VA BCH 0350   62 57  210/ 12/ 12 1012.1S   4/11   3/11
DUCK PIER NC     0348   74 56  210/ 12/ 15 1011.5R
44100 DUCK FRF   0305      61                N/A     3/11   2/11
44056 DUCK FRF   0330      59                N/A     2/11   2/11
OREGON INLET NC  0342   72 75  210/ 18/ 22 1012.5R
HATTERAS NC      0348   70 71  220/ 13/ 19 1013.5S
DIAMOND SHLS NC  0350   76     230/ 21/ 25 1013.7S   5/ 5   2/11
CAPE LOOKOUT NC  0400   71     220/ 11/ 14 1014.4S
$$




USA.gov is the U.S. government's official web portal to all federal, state and local government web resources and services.